Погода в Беляйково

Россия / Калужская область     54°47′34″N   35°37′57″E
темп.,
°C
ветер,
м/с
пор.,
м/с
влажн.,
%
обл.,
%
осадки,
мм/ч
давл.,
гПа
погр.,
м
9 мая, вс
вс900:00+5сз61295100 1.3 10051054
03:00+4сз61295100 2.8 1008989
06:00+3сз51192100 0.7 1010842
09:00+5сз61186100 1.0 1012972
12:00+5сз5980100 0.2 10151102
15:00+10ссз61049100 0.3 10162248
18:00+10ссз485562 0.1 10181764
21:00+5сз3107624 0.1 1021185
10 мая, пн
пн1000:00+3сз39800 0.0 1023157
03:00+2ссз39771 0.0 1025161
06:00+2ссз26770 0.0 1027157
09:00+9с35531 0.0 1027600
12:00+13ссв46391 0.0 10271649
15:00+14ссв46370 0.0 10271694
18:00+13св36500 0.0 10261249
21:00+7ссв25750 0.0 102885
11 мая, вт
вт1100:00+4св26810 0.0 1028106
03:00+3ссв39820 0.0 1028168
06:00+5ссв411770 0.0 1028299
09:00+11св59613 0.0 1027551
12:00+17св57540 0.0 1026818
15:00+19всв57565 0.0 10251141
18:00+18всв48680 0.0 10241027
21:00+13всв3992100 0.3 1025241
12 мая, ср
ср1200:00+11юв38979 0.1 1026336
03:00+7юв22972 0.1 102730
06:00+7вюв129148 0.0 102742
09:00+10зсз0081100 0.0 1025216
12:00+9з2597100 2.7 1023261
15:00+11всв41496100 4.8 1019887
18:00+12вюв61393100 3.1 10161134
21:00+7ююв4109342 3.3 1020669
13 мая, чт
чт1300:00+5в389884 0.0 1021198
03:00+6всв31396100 0.0 1019359
06:00+8вюв4119654 1.1 1019513
09:00+11вюв489033 2.2 1018537
12:00+15ююв486847 0.6 10181450
15:00+17ю5857100 0.7 10171584
18:00+17ююв376590 0.0 10171196
21:00+11юв22880 0.0 101814